Location: Aufkirchen
(47.9603°N, 11.3653°E)
Time: 15:01:24
(UTC+01:00)

Transit 2A Rocket - Pass Details

Date: 13 December 2020
Orbit: 592 x 910 km, 66.7° (Epoch: 21 January)

Event Time Altitude Azimuth Distance (km) Brightness Sun altitude
Rises 04:54:47 0° 327° (NNW) 3,195 - -29.2°
Reaches altitude 10° 04:58:25 10° 352° (N) 2,192 - -28.6°
Exits shadow 05:00:02 13° 11° (N) 1,932 7.1 -28.3°
Maximum altitude 05:01:02 14° 24° (NNE) 1,869 7.2 -28.1°
Drops below altitude 10° 05:03:33 10° 57° (ENE) 2,086 7.9 -27.7°
Sets 05:06:51 0° 83° (E) 2,935 9.2 -27.2°
